Simultaneous Nadir Overpasses (SNOs) Predictions

Prediction of SNOs between AQUA and METOP-B Satellite Orbit:

Table of predicted SNOs for the next 14.0 days since TLE Epoch: 6/5/2021
Index Date (AQUA) Time (AQUA) Lat,Lon (AQUA) SZA (AQUA ) Date (METOP-B) Time (METOP-B) Lat,Lon (METOP-B) SZA (METOP-B ) Distance(km) Time Diff (sec)
1 06/06/2021 01:23:57 73.72, 153.45 51.05 06/06/2021 01:22:46 73.74, 153.43 51.09 3.25 71
2 06/06/2021 02:13:25 -73.82, -39.15 128.85 06/06/2021 02:13:27 -73.80, -39.10 128.87 2.55 2
3 06/06/2021 03:02:53 73.87, 128.39 51.20 06/06/2021 03:04:05 73.87, 128.40 51.20 0.80 72
4 06/08/2021 20:58:13 73.75,-140.19 50.82 06/08/2021 20:57:10 73.73,-140.19 50.82 1.92 63
5 06/08/2021 21:47:40 -73.80, 27.34 129.13 06/08/2021 21:47:51 -73.80, 27.29 129.13 1.69 11
6 06/08/2021 22:37:13 74.11,-165.71 51.20 06/08/2021 22:38:23 74.16,-164.49 51.21 37.58 70
7 06/11/2021 16:32:27 73.74, -73.73 50.61 06/11/2021 16:31:32 73.77, -73.70 50.65 3.49 55
8 06/11/2021 17:21:55 -73.84, 93.69 129.29 06/11/2021 17:22:13 -73.84, 93.79 129.30 3.05 18
9 06/11/2021 18:11:34 74.46,-100.10 51.38 06/11/2021 18:12:40 74.44, -97.37 51.27 81.49 66
10 06/14/2021 12:06:42 73.73, -7.28 50.45 06/14/2021 12:05:56 73.75, -7.33 50.48 2.85 46
11 06/14/2021 12:56:10 -73.83, 160.14 129.45 06/14/2021 12:56:37 -73.83, 160.17 129.46 1.12 27
12 06/17/2021 07:40:58 73.78, 59.05 50.41 06/17/2021 07:40:19 73.79, 59.15 50.41 3.29 39
13 06/17/2021 08:30:25 -73.83,-133.42 129.54 06/17/2021 08:31:01 -73.81,-133.46 129.57 2.82 36



Historial Predications of SNOs between AQUA and METOP-B
